Location: *
(60.1759°S, 155.0663°W)
Time: 16:41:18
(UTC+00:00)

Okean O Rocket - Pass Details

Date: 17 September 2019
Orbit: 623 x 644 km, 98.2° (Epoch: 14 October)

Event Time Altitude Azimuth Distance (km) Brightness Sun altitude
Rises 13:16:10 0° 50° (NE) 2,954 5.2 -22.5°
Reaches altitude 10° 13:18:31 10° 59° (ENE) 2,047 4.4 -22.3°
Maximum altitude 13:22:31 33° 123° (ESE) 1,086 3.4 -21.9°
Drops below altitude 10° 13:26:32 10° 186° (S) 2,055 4.6 -21.5°
Sets 13:28:53 0° 195° (SSW) 2,967 5.3 -21.3°
